,,Stat6,,Stat2,,Stat8,,Stat9,,Stat10,,Wind1,,Wind1,
time,status,PA1M_AVG,status,PR1M_SUM,status,RH1M_AVG,status,SR1M_AVG,status,TA1M_AVG,status,W1dAve1m,status,W1sAve1m,
2003-11-01, 00:00:00,VALID,917.297,VALID,0,VALID,99.723,VALID,0,VALID,19.9263,VALID,18,VALID,0.417969,
2003-11-01, 00:01:00,VALID,917.284,VALID,0,VALID,99.7675,VALID,0.0339617,VALID,19.9521,VALID,18,VALID,0.231585,
2003-11-01, 00:02:00,VALID,917.271,VALID,0,VALID,99.737,VALID,0.0169808,VALID,19.9328,VALID,18,VALID,0,
2003-11-01, 00:03:00,VALID,917.25,VALID,0,VALID,99.7803,VALID,0.0509425,VALID,19.9429,VALID,18,VALID,0.00727983,
2003-11-01, 00:04:00,VALID,917.223,VALID,0,VALID,99.7943,VALID,0.0169808,VALID,19.9323,VALID,18,VALID,0.406808,
2003-11-01, 00:05:00,VALID,917.215,VALID,0,VALID,99.7917,VALID,-0.101885,VALID,19.9375,VALID,11,VALID,0.710379,
2003-11-01, 00:06:00,VALID,917.221,VALID,0,VALID,99.718,VALID,-0.0679233,VALID,19.902,VALID,6,VALID,0.650436,
2003-11-01, 00:07:00,VALID,917.205,VALID,0,VALID,99.751,VALID,-0.0509425,VALID,19.9015,VALID,7,VALID,0.383539,
2003-11-01, 00:08:00,VALID,917.202,VALID,0,VALID,99.7803,VALID,-0.0339617,VALID,19.9111,VALID,11,VALID,0.341319,
2003-11-01, 00:09:00,VALID,917.207,VALID,0,VALID,99.8159,VALID,-0.101885,VALID,19.9141,VALID,10,VALID,0.280729,
2003-11-01, 00:10:00,VALID,917.203,VALID,0,VALID,99.7854,VALID,-0.101885,VALID,19.9084,VALID,356,VALID,0.345526,
2003-11-01, 00:11:00,VALID,917.197,VALID,0,VALID,99.7701,VALID,-0.0509425,VALID,19.8923,VALID,354,VALID,0.185724,
2003-11-01, 00:12:00,VALID,917.193,VALID,0,VALID,99.7714,VALID,-0.0849042,VALID,19.8888,VALID,354,VALID,0.313045,
2003-11-01, 00:13:00,VALID,917.181,VALID,0,VALID,99.7879,VALID,-0.0679233,VALID,19.8853,VALID,354,VALID,0.00351562,
2003-11-01, 00:14:00,VALID,917.172,VALID,0,VALID,99.7981,VALID,-0.0679233,VALID,19.8923,VALID,13,VALID,0.524709,
2003-11-01, 00:15:00,VALID,917.144,VALID,0,VALID,99.8349,VALID,-0.0849042,VALID,19.9111,VALID,17,VALID,0.462139,
2003-11-01, 00:16:00,VALID,917.133,VALID,0,VALID,99.8693,VALID,-0.0339617,VALID,19.9275,VALID,17,VALID,0.220052,
2003-11-01, 00:17:00,VALID,917.106,VALID,0,VALID,99.8756,VALID,-0.0509425,VALID,19.9275,VALID,16,VALID,0.145894,
2003-11-01, 00:18:00,VALID,917.076,VALID,0,VALID,99.8718,VALID,-0.0849042,VALID,19.927,VALID,15,VALID,0.223028,
2003-11-01, 00:19:00,VALID,917.062,VALID,0,VALID,99.896,VALID,-0.0169808,VALID,19.9365,VALID,4,VALID,0.248698,
2003-11-01, 00:20:00,VALID,917.058,VALID,0,VALID,99.8896,VALID,0.0509425,VALID,19.9323,VALID,336,VALID,0.513317,
2003-11-01, 00:21:00,VALID,917.039,VALID,0,VALID,99.8489,VALID,0,VALID,19.9072,VALID,328,VALID,0.332209,
2003-11-01, 00:22:00,VALID,917.039,VALID,0,VALID,99.8159,VALID,0.0509425,VALID,19.8843,VALID,328,VALID,0.269709,
2003-11-01, 00:23:00,VALID,917.037,VALID,0,VALID,99.8273,VALID,0.0339617,VALID,19.8781,VALID,328,VALID,0.0530523,
2003-11-01, 00:24:00,VALID,917.03,VALID,0,VALID,99.8515,VALID,0,VALID,19.8873,VALID,328,VALID,0,
2003-11-01, 00:25:00,VALID,917.034,VALID,0,VALID,99.8706,VALID,0,VALID,19.9034,VALID,328,VALID,0,
2003-11-01, 00:26:00,VALID,917.037,VALID,0,VALID,99.8807,VALID,0,VALID,19.9069,VALID,328,VALID,0,
2003-11-01, 00:27:00,VALID,917.017,VALID,0,VALID,99.8731,VALID,0.0169808,VALID,19.9039,VALID,328,VALID,0.0301067,
2003-11-01, 00:28:00,VALID,916.995,VALID,0,VALID,99.8782,VALID,0.0339617,VALID,19.9067,VALID,328,VALID,0.0712209,
2003-11-01, 00:29:00,VALID,916.99,VALID,0,VALID,99.8756,VALID,0,VALID,19.9134,VALID,341,VALID,0.155506,
2003-11-01, 00:30:00,VALID,916.961,VALID,0,VALID,99.8566,VALID,0,VALID,19.9005,VALID,348,VALID,0.443892,
2003-11-01, 00:31:00,VALID,916.941,VALID,0,VALID,99.8489,VALID,0,VALID,19.9074,VALID,16,VALID,0.591493,
2003-11-01, 00:32:00,VALID,916.92,VALID,0,VALID,99.8667,VALID,0,VALID,19.9166,VALID,12,VALID,0.808866,
2003-11-01, 00:33:00,VALID,916.917,VALID,0,VALID,99.882,VALID,0,VALID,19.9268,VALID,16,VALID,0.654978,
2003-11-01, 00:34:00,VALID,916.895,VALID,0,VALID,99.8871,VALID,-0.0169808,VALID,19.9365,VALID,18,VALID,0.325036,
2003-11-01, 00:35:00,VALID,916.883,VALID,0,VALID,99.9011,VALID,0,VALID,19.9392,VALID,20,VALID,0.615412,
2003-11-01, 00:36:00,VALID,916.864,VALID,0,VALID,99.9214,VALID,0,VALID,19.9524,VALID,19,VALID,0.433866,
2003-11-01, 00:37:00,VALID,916.828,VALID,0,VALID,99.9125,VALID,0.0169808,VALID,19.9494,VALID,8,VALID,0.387649,
2003-11-01, 00:38:00,VALID,916.799,VALID,0,VALID,99.91,VALID,0.0169808,VALID,19.9298,VALID,6,VALID,0.43892,
2003-11-01, 00:39:00,VALID,916.776,VALID,0,VALID,99.9023,VALID,0.0169808,VALID,19.9228,VALID,7,VALID,0.472656,
2003-11-01, 00:40:00,VALID,916.764,VALID,0,VALID,99.8795,VALID,0.0339617,VALID,19.9096,VALID,18,VALID,0.669643,
2003-11-01, 00:41:00,VALID,916.733,VALID,0,VALID,99.8909,VALID,0,VALID,19.9298,VALID,22,VALID,0.761905,
2003-11-01, 00:42:00,VALID,916.709,VALID,0,VALID,99.9049,VALID,0.0169808,VALID,19.929,VALID,9,VALID,0.698103,
2003-11-01, 00:43:00,VALID,916.691,VALID,0,VALID,99.8795,VALID,0,VALID,19.9134,VALID,340,VALID,0.842188,
2003-11-01, 00:44:00,VALID,916.673,VALID,0,VALID,99.8502,VALID,0,VALID,19.8913,VALID,355,VALID,0.566229,
2003-11-01, 00:45:00,VALID,916.646,VALID,0,VALID,99.8477,VALID,0,VALID,19.8843,VALID,357,VALID,0.494186,
2003-11-01, 00:46:00,VALID,916.619,VALID,0,VALID,99.8413,VALID,0.0339617,VALID,19.8652,VALID,357,VALID,0.457617,
2003-11-01, 00:47:00,VALID,916.594,VALID,0,VALID,99.854,VALID,-0.0169808,VALID,19.8518,VALID,357,VALID,0.386186,
2003-11-01, 00:48:00,VALID,916.58,VALID,0,VALID,99.8527,VALID,0.0339617,VALID,19.8585,VALID,358,VALID,0.489347,
2003-11-01, 00:49:00,VALID,916.552,VALID,0,VALID,99.8909,VALID,0.0169808,VALID,19.8547,VALID,358,VALID,0.232372,
2003-11-01, 00:50:00,VALID,916.525,VALID,0,VALID,99.8985,VALID,0.0169808,VALID,19.8744,VALID,359,VALID,0.351393,
2003-11-01, 00:51:00,VALID,916.499,VALID,0,VALID,99.9062,VALID,0.0339617,VALID,19.8749,VALID,360,VALID,0.437145,
2003-11-01, 00:52:00,VALID,916.487,VALID,0,VALID,99.9112,VALID,0.0339617,VALID,19.8746,VALID,360,VALID,0.302202,
2003-11-01, 00:53:00,VALID,916.475,VALID,0,VALID,99.9329,VALID,0,VALID,19.8811,VALID,360,VALID,0.151634,
2003-11-01, 00:54:00,VALID,916.458,VALID,0,VALID,99.9379,VALID,0,VALID,19.8841,VALID,360,VALID,0.00171494,
2003-11-01, 00:55:00,VALID,916.453,VALID,0,VALID,99.9405,VALID,0.0169808,VALID,19.894,VALID,360,VALID,0.00078125,
2003-11-01, 00:56:00,VALID,916.449,VALID,0,VALID,99.9379,VALID,0.0509425,VALID,19.9007,VALID,360,VALID,0,
2003-11-01, 00:57:00,VALID,916.438,VALID,0,VALID,99.9379,VALID,-0.0169808,VALID,19.8808,VALID,360,VALID,0,
2003-11-01, 00:58:00,VALID,916.432,VALID,0,VALID,99.8973,VALID,0.0339617,VALID,19.8883,VALID,360,VALID,0,
2003-11-01, 00:59:00,VALID,916.418,VALID,0,VALID,99.8642,VALID,-0.0169808,VALID,19.8523,VALID,360,VALID,0,
2003-11-01, 01:00:00,VALID,916.413,VALID,0,VALID,99.8222,VALID,0,VALID,19.8329,VALID,360,VALID,0,
2003-11-01, 01:01:00,VALID,916.398,VALID,0,VALID,99.7803,VALID,0,VALID,19.8001,VALID,360,VALID,0,
2003-11-01, 01:02:00,VALID,916.378,VALID,0,VALID,99.807,VALID,0,VALID,19.7842,VALID,360,VALID,0.0256696,
2003-11-01, 01:03:00,VALID,916.36,VALID,0,VALID,99.8604,VALID,-0.0169808,VALID,19.8103,VALID,360,VALID,0.269354,
2003-11-01, 01:04:00,VALID,916.333,VALID,0,VALID,99.8706,VALID,-0.0339617,VALID,19.817,VALID,360,VALID,0.289621,
2003-11-01, 01:05:00,VALID,916.318,VALID,0,VALID,99.8718,VALID,-0.0849042,VALID,19.8247,VALID,360,VALID,0.219815,
2003-11-01, 01:06:00,VALID,916.301,VALID,0,VALID,99.8693,VALID,-0.101885,VALID,19.8312,VALID,360,VALID,0.234197,
2003-11-01, 01:07:00,VALID,916.277,VALID,0,VALID,99.8553,VALID,-0.0679233,VALID,19.8344,VALID,360,VALID,0.315163,
2003-11-01, 01:08:00,VALID,916.248,VALID,0,VALID,99.8311,VALID,-0.0849042,VALID,19.8249,VALID,360,VALID,0.330915,
2003-11-01, 01:09:00,VALID,916.239,VALID,0,VALID,99.7854,VALID,-0.0679233,VALID,19.8018,VALID,360,VALID,0.263626,
2003-11-01, 01:10:00,VALID,916.229,VALID,0,VALID,99.7434,VALID,-0.101885,VALID,19.7956,VALID,360,VALID,0.269055,
2003-11-01, 01:11:00,VALID,916.226,VALID,0,VALID,99.6887,VALID,-0.0849042,VALID,19.7763,VALID,360,VALID,0.192649,
2003-11-01, 01:12:00,VALID,916.221,VALID,0,VALID,99.6506,VALID,-0.101885,VALID,19.7633,VALID,360,VALID,0.0794271,
2003-11-01, 01:13:00,VALID,916.219,VALID,0,VALID,99.6111,VALID,-0.0849042,VALID,19.7305,VALID,360,VALID,0,
2003-11-01, 01:14:00,VALID,916.202,VALID,0,VALID,99.6061,VALID,-0.101885,VALID,19.7248,VALID,360,VALID,0,
2003-11-01, 01:15:00,VALID,916.202,VALID,0,VALID,99.5908,VALID,-0.101885,VALID,19.7117,VALID,360,VALID,0,
2003-11-01, 01:16:00,VALID,916.183,VALID,0,VALID,99.5972,VALID,-0.101885,VALID,19.692,VALID,360,VALID,0,
2003-11-01, 01:17:00,VALID,916.183,VALID,0,VALID,99.5997,VALID,-0.101885,VALID,19.6893,VALID,360,VALID,0,
2003-11-01, 01:18:00,VALID,916.186,VALID,0,VALID,99.5654,VALID,-0.0849042,VALID,19.6731,VALID,360,VALID,0,
2003-11-01, 01:19:00,VALID,916.194,VALID,0,VALID,99.559,VALID,-0.0849042,VALID,19.6664,VALID,360,VALID,0,
2003-11-01, 01:20:00,VALID,916.183,VALID,0,VALID,99.5603,VALID,-0.101885,VALID,19.6468,VALID,360,VALID,0,
2003-11-01, 01:21:00,VALID,916.164,VALID,0,VALID,99.5323,VALID,-0.101885,VALID,19.6471,VALID,360,VALID,0,
2003-11-01, 01:22:00,VALID,916.168,VALID,0,VALID,99.4992,VALID,-0.101885,VALID,19.6245,VALID,360,VALID,0,
2003-11-01, 01:23:00,VALID,916.149,VALID,0,VALID,99.5183,VALID,-0.0849042,VALID,19.6247,VALID,360,VALID,0,
2003-11-01, 01:24:00,VALID,916.141,VALID,0,VALID,99.5272,VALID,-0.0849042,VALID,19.6217,VALID,360,VALID,0,
2003-11-01, 01:25:00,VALID,916.143,VALID,0,VALID,99.4878,VALID,-0.101885,VALID,19.612,VALID,360,VALID,0,
2003-11-01, 01:26:00,VALID,916.134,VALID,0,VALID,99.4725,VALID,-0.101885,VALID,19.5929,VALID,360,VALID,0,
2003-11-01, 01:27:00,VALID,916.127,VALID,0,VALID,99.4967,VALID,-0.0849042,VALID,19.5927,VALID,360,VALID,0,
2003-11-01, 01:28:00,VALID,916.111,VALID,0,VALID,99.5145,VALID,-0.0679233,VALID,19.5792,VALID,360,VALID,0,
2003-11-01, 01:29:00,VALID,916.081,VALID,0,VALID,99.5463,VALID,-0.0679233,VALID,19.583,VALID,360,VALID,0,
2003-11-01, 01:30:01,VALID,916.06,VALID,0,VALID,99.5463,VALID,-0.0849042,VALID,19.5827,VALID,360,VALID,0,
2003-11-01, 01:31:00,VALID,916.056,VALID,0,VALID,99.5107,VALID,-0.101885,VALID,19.5601,VALID,360,VALID,0,
2003-11-01, 01:32:00,VALID,916.026,VALID,0,VALID,99.5132,VALID,-0.101885,VALID,19.5631,VALID,360,VALID,0,
2003-11-01, 01:33:00,VALID,916.028,VALID,0,VALID,99.5221,VALID,-0.118866,VALID,19.5479,VALID,360,VALID,0,
2003-11-01, 01:34:01,VALID,916.017,VALID,0,VALID,99.5018,VALID,-0.0509425,VALID,19.5243,VALID,353,VALID,0.306445,
2003-11-01, 01:35:01,VALID,916.013,VALID,0,VALID,99.4916,VALID,0,VALID,19.5134,VALID,319,VALID,0.428385,
2003-11-01, 01:36:01,VALID,916.013,VALID,0,VALID,99.4662,VALID,0,VALID,19.5231,VALID,328,VALID,0.30923,
2003-11-01, 01:37:01,VALID,916,VALID,0,VALID,99.4166,VALID,0,VALID,19.5301,VALID,336,VALID,0.39375,
2003-11-01, 01:38:00,VALID,915.991,VALID,0,VALID,99.3823,VALID,0,VALID,19.5107,VALID,350,VALID,0.532315,
2003-11-01, 01:39:01,VALID,915.975,VALID,0,VALID,99.3594,VALID,0,VALID,19.5139,VALID,5,VALID,0.529167,
2003-11-01, 01:40:01,VALID,915.964,VALID,0,VALID,99.3416,VALID,0,VALID,19.5109,VALID,7,VALID,0.375,
2003-11-01, 01:41:00,VALID,915.959,VALID,0,VALID,99.2538,VALID,0,VALID,19.4816,VALID,7,VALID,0.0309028,
2003-11-01, 01:42:00,VALID,915.948,VALID,0,VALID,99.1674,VALID,0,VALID,19.4493,VALID,7,VALID,0,
2003-11-01, 01:43:00,VALID,915.954,VALID,0,VALID,99.1534,VALID,0.0169808,VALID,19.4297,VALID,7,VALID,0.00639205,
2003-11-01, 01:44:00,VALID,915.934,VALID,0,VALID,99.1839,VALID,0.0339617,VALID,19.4168,VALID,7,VALID,0.0241997,
2003-11-01, 01:45:01,VALID,915.931,VALID,0,VALID,99.208,VALID,0,VALID,19.4071,VALID,7,VALID,0.318484,
2003-11-01, 01:46:00,VALID,915.922,VALID,0,VALID,99.2144,VALID,0,VALID,19.4101,VALID,7,VALID,0.537642,
2003-11-01, 01:47:00,VALID,915.921,VALID,0,VALID,99.1991,VALID,0,VALID,19.427,VALID,7,VALID,0.422433,
2003-11-01, 01:48:01,VALID,915.929,VALID,0,VALID,99.1864,VALID,0,VALID,19.4297,VALID,7,VALID,0.308866,
2003-11-01, 01:49:01,VALID,915.941,VALID,0,VALID,99.189,VALID,0.0169808,VALID,19.4401,VALID,7,VALID,0.245722,
2003-11-01, 01:50:00,VALID,915.945,VALID,0,VALID,99.1279,VALID,0,VALID,19.4329,VALID,7,VALID,0.0948933,
2003-11-01, 01:51:01,VALID,915.949,VALID,0,VALID,99.0682,VALID,0.0169808,VALID,19.4136,VALID,7,VALID,0.0431548,
2003-11-01, 01:52:01,VALID,915.956,VALID,0,VALID,99.0326,VALID,0,VALID,19.3937,VALID,7,VALID,0.115945,
2003-11-01, 01:53:00,VALID,915.954,VALID,0,VALID,99.0618,VALID,0.0169808,VALID,19.3972,VALID,7,VALID,0.338601,
2003-11-01, 01:54:00,VALID,915.946,VALID,0,VALID,99.0733,VALID,0.0169808,VALID,19.3937,VALID,7,VALID,0.495458,
2003-11-01, 01:55:01,VALID,915.95,VALID,0,VALID,99.0961,VALID,0.0169808,VALID,19.4009,VALID,7,VALID,0.406064,
2003-11-01, 01:56:00,VALID,915.962,VALID,0,VALID,99.119,VALID,0,VALID,19.4039,VALID,7,VALID,0.498326,
2003-11-01, 01:57:00,VALID,915.963,VALID,0,VALID,99.086,VALID,0.0169808,VALID,19.381,VALID,6,VALID,0.542459,
2003-11-01, 01:58:00,VALID,915.968,VALID,0,VALID,99.1496,VALID,0.0169808,VALID,19.3813,VALID,10,VALID,0.575893,
2003-11-01, 01:59:00,VALID,915.962,VALID,0,VALID,99.236,VALID,0,VALID,19.4006,VALID,13,VALID,0.395461,
2003-11-01, 02:00:01,VALID,915.973,VALID,0,VALID,99.2996,VALID,0,VALID,19.3912,VALID,13,VALID,0.128534,
2003-11-01, 02:01:00,VALID,915.968,VALID,0,VALID,99.3263,VALID,0,VALID,19.3947,VALID,13,VALID,0.230923,
2003-11-01, 02:02:00,VALID,915.956,VALID,0,VALID,99.3594,VALID,0,VALID,19.3912,VALID,13,VALID,0.336648,
2003-11-01, 02:03:00,VALID,915.973,VALID,0,VALID,99.3657,VALID,0,VALID,19.378,VALID,13,VALID,0.264382,
2003-11-01, 02:04:01,VALID,915.986,VALID,0,VALID,99.3644,VALID,0,VALID,19.3589,VALID,13,VALID,0,
2003-11-01, 02:05:00,VALID,915.997,VALID,0,VALID,99.414,VALID,-0.0849042,VALID,19.3537,VALID,13,VALID,0,
2003-11-01, 02:06:00,VALID,916.004,VALID,0,VALID,99.456,VALID,-0.0849042,VALID,19.3537,VALID,13,VALID,0,
2003-11-01, 02:07:00,VALID,916,VALID,0,VALID,99.4585,VALID,-0.101885,VALID,19.3437,VALID,13,VALID,0,
2003-11-01, 02:08:00,VALID,915.994,VALID,0,VALID,99.47,VALID,-0.0849042,VALID,19.3437,VALID,13,VALID,0,
2003-11-01, 02:09:01,VALID,915.984,VALID,0,VALID,99.5031,VALID,-0.0339617,VALID,19.344,VALID,13,VALID,0,
2003-11-01, 02:10:00,VALID,915.982,VALID,0,VALID,99.5081,VALID,-0.0679233,VALID,19.3276,VALID,13,VALID,0,
2003-11-01, 02:11:00,VALID,915.988,VALID,0,VALID,99.5387,VALID,-0.101885,VALID,19.3244,VALID,9,VALID,0.0748047,
2003-11-01, 02:12:01,VALID,915.991,VALID,0,VALID,99.6315,VALID,-0.0509425,VALID,19.3467,VALID,357,VALID,0.142149,
2003-11-01, 02:13:00,VALID,915.985,VALID,0,VALID,99.6595,VALID,-0.101885,VALID,19.3634,VALID,357,VALID,0,
2003-11-01, 02:14:01,VALID,915.979,VALID,0,VALID,99.7218,VALID,-0.101885,VALID,19.3758,VALID,357,VALID,0,
2003-11-01, 02:15:00,VALID,915.963,VALID,0,VALID,99.7447,VALID,-0.0849042,VALID,19.4028,VALID,356,VALID,0,
2003-11-01, 02:16:00,VALID,915.954,VALID,0,VALID,99.7688,VALID,-0.101885,VALID,19.3825,VALID,357,VALID,0,
2003-11-01, 02:17:00,VALID,915.958,VALID,0,VALID,99.7256,VALID,-0.0849042,VALID,19.3827,VALID,357,VALID,0,
2003-11-01, 02:18:00,VALID,915.961,VALID,0,VALID,99.6671,VALID,-0.0679233,VALID,19.3634,VALID,357,VALID,0,
2003-11-01, 02:19:00,VALID,915.974,VALID,0,VALID,99.601,VALID,-0.0509425,VALID,19.3216,VALID,357,VALID,0,
2003-11-01, 02:20:00,VALID,915.977,VALID,0,VALID,99.6239,VALID,0,VALID,19.2976,VALID,357,VALID,0.0965278,
2003-11-01, 02:21:01,VALID,915.968,VALID,0,VALID,99.6696,VALID,0.0169808,VALID,19.2976,VALID,357,VALID,0.0410156,
2003-11-01, 02:22:00,VALID,915.954,VALID,0,VALID,99.6671,VALID,0.0339617,VALID,19.2909,VALID,357,VALID,0.00400152,
2003-11-01, 02:23:00,VALID,915.952,VALID,0,VALID,99.6595,VALID,0,VALID,19.2809,VALID,357,VALID,0.139757,
2003-11-01, 02:24:00,VALID,915.942,VALID,0,VALID,99.6099,VALID,0,VALID,19.2754,VALID,357,VALID,0.127976,
2003-11-01, 02:25:00,VALID,915.932,VALID,0,VALID,99.6315,VALID,0.0169808,VALID,19.2519,VALID,357,VALID,0.262091,
2003-11-01, 02:26:00,VALID,915.917,VALID,0,VALID,99.662,VALID,0.0169808,VALID,19.272,VALID,357,VALID,0.00800305,
2003-11-01, 02:27:00,VALID,915.911,VALID,0,VALID,99.6366,VALID,0.0169808,VALID,19.2459,VALID,357,VALID,0.212674,
2003-11-01, 02:28:00,VALID,915.901,VALID,0,VALID,99.6175,VALID,0.0169808,VALID,19.2494,VALID,2,VALID,0.522852,
2003-11-01, 02:29:00,VALID,915.908,VALID,0,VALID,99.6162,VALID,0.0169808,VALID,19.2494,VALID,15,VALID,0.564499,
2003-11-01, 02:30:00,VALID,915.928,VALID,0,VALID,99.5908,VALID,0,VALID,19.2491,VALID,15,VALID,0.416853,
2003-11-01, 02:31:00,VALID,915.917,VALID,0,VALID,99.5348,VALID,0.0509425,VALID,19.236,VALID,16,VALID,0.4133,
2003-11-01, 02:32:01,VALID,915.923,VALID,0,VALID,99.484,VALID,0,VALID,19.2332,VALID,17,VALID,0.354403,
2003-11-01, 02:33:00,VALID,915.905,VALID,0,VALID,99.4382,VALID,0,VALID,19.2071,VALID,352,VALID,0.75651,
2003-11-01, 02:34:01,VALID,915.891,VALID,0,VALID,99.4725,VALID,0,VALID,19.2208,VALID,344,VALID,0.747852,
2003-11-01, 02:35:00,VALID,915.857,VALID,0,VALID,99.4751,VALID,0,VALID,19.2233,VALID,5,VALID,0.743786,
2003-11-01, 02:36:01,VALID,915.845,VALID,0,VALID,99.4408,VALID,0.0339617,VALID,19.2367,VALID,7,VALID,0.679865,
2003-11-01, 02:37:01,VALID,915.832,VALID,0,VALID,99.3861,VALID,0.0339617,VALID,19.2268,VALID,7,VALID,0.521257,
2003-11-01, 02:38:00,VALID,915.82,VALID,0,VALID,99.409,VALID,0,VALID,19.2295,VALID,9,VALID,0.548921,
2003-11-01, 02:39:01,VALID,915.802,VALID,0,VALID,99.339,VALID,0,VALID,19.2198,VALID,10,VALID,0.511719,
2003-11-01, 02:40:00,VALID,915.775,VALID,0,VALID,99.2882,VALID,0,VALID,19.2111,VALID,10,VALID,0.512607,
2003-11-01, 02:41:01,VALID,915.789,VALID,0,VALID,99.3072,VALID,0,VALID,19.2076,VALID,4,VALID,0.559896,
2003-11-01, 02:42:00,VALID,915.79,VALID,0,VALID,99.292,VALID,0.0169808,VALID,19.2014,VALID,359,VALID,0.644336,
2003-11-01, 02:43:00,VALID,915.802,VALID,0,VALID,99.3581,VALID,0.0169808,VALID,19.2009,VALID,357,VALID,0.652798,
2003-11-01, 02:44:01,VALID,915.792,VALID,0,VALID,99.3632,VALID,0.0169808,VALID,19.2138,VALID,352,VALID,0.360465,
2003-11-01, 02:45:01,VALID,915.781,VALID,0,VALID,99.395,VALID,0,VALID,19.2201,VALID,350,VALID,0.297602,
2003-11-01, 02:46:00,VALID,915.774,VALID,0,VALID,99.4179,VALID,0.0169808,VALID,19.2394,VALID,9,VALID,0.813227,
2003-11-01, 02:47:00,VALID,915.758,VALID,0,VALID,99.4077,VALID,0,VALID,19.2461,VALID,13,VALID,1.03782,
2003-11-01, 02:48:00,VALID,915.75,VALID,0,VALID,99.4191,VALID,0,VALID,19.2628,VALID,3,VALID,1.07412,
2003-11-01, 02:49:01,VALID,915.742,VALID,0,VALID,99.3568,VALID,0.0169808,VALID,19.2655,VALID,13,VALID,1.46975,
2003-11-01, 02:50:01,VALID,915.753,VALID,0,VALID,99.3263,VALID,-0.0169808,VALID,19.2789,VALID,14,VALID,1.32013,
2003-11-01, 02:51:00,VALID,915.776,VALID,0,VALID,99.2551,VALID,0.0169808,VALID,19.2913,VALID,19,VALID,1.2141,
2003-11-01, 02:52:01,VALID,915.818,VALID,0,VALID,99.1864,VALID,0,VALID,19.3209,VALID,10,VALID,0.887173,
2003-11-01, 02:53:00,VALID,915.833,VALID,0,VALID,99.0923,VALID,0,VALID,19.3174,VALID,1,VALID,0.43892,
2003-11-01, 02:54:00,VALID,915.835,VALID,0,VALID,99.0351,VALID,0,VALID,19.3239,VALID,358,VALID,0.164993,
2003-11-01, 02:55:00,VALID,915.819,VALID,0,VALID,99.0148,VALID,0,VALID,19.3271,VALID,358,VALID,0,
2003-11-01, 02:56:00,VALID,915.824,VALID,0,VALID,99.0542,VALID,0,VALID,19.3403,VALID,358,VALID,0,
2003-11-01, 02:57:00,VALID,915.825,VALID,0,VALID,99.0898,VALID,0,VALID,19.3393,VALID,360,VALID,0.198289,
2003-11-01, 02:58:01,VALID,915.835,VALID,0,VALID,99.0351,VALID,0,VALID,19.343,VALID,5,VALID,0.49707,
2003-11-01, 02:59:00,VALID,915.852,VALID,0,VALID,98.969,VALID,0,VALID,19.3631,VALID,353,VALID,0.688867,
2003-11-01, 03:00:00,VALID,915.873,VALID,0,VALID,98.9321,VALID,0.0169808,VALID,19.3651,VALID,2,VALID,0.286328,
2003-11-01, 03:01:00,VALID,915.888,VALID,0,VALID,98.8545,VALID,-0.0169808,VALID,19.3659,VALID,3,VALID,0.127148,
2003-11-01, 03:02:01,VALID,915.883,VALID,0,VALID,98.8304,VALID,0,VALID,19.3743,VALID,2,VALID,0.209413,
2003-11-01, 03:03:01,VALID,915.909,VALID,0,VALID,98.7935,VALID,0.0169808,VALID,19.3952,VALID,357,VALID,0.568164,
2003-11-01, 03:04:00,VALID,915.916,VALID,0,VALID,98.6778,VALID,-0.0169808,VALID,19.388,VALID,2,VALID,0.580035,
2003-11-01, 03:05:00,VALID,915.938,VALID,0,VALID,98.5735,VALID,-0.0339617,VALID,19.4024,VALID,1,VALID,0.493304,
2003-11-01, 03:06:01,VALID,915.941,VALID,0,VALID,98.5328,VALID,-0.0509425,VALID,19.389,VALID,360,VALID,0.446039,
2003-11-01, 03:07:01,VALID,915.937,VALID,0,VALID,98.482,VALID,-0.0169808,VALID,19.4061,VALID,360,VALID,0.516369,
2003-11-01, 03:08:01,VALID,915.927,VALID,0,VALID,98.4184,VALID,-0.0509425,VALID,19.3929,VALID,360,VALID,0.655382,
2003-11-01, 03:09:00,VALID,915.911,VALID,0,VALID,98.4069,VALID,-0.0849042,VALID,19.3696,VALID,2,VALID,0.685213,
2003-11-01, 03:10:01,VALID,915.9,VALID,0,VALID,98.4616,VALID,-0.0339617,VALID,19.3631,VALID,7,VALID,0.728087,
2003-11-01, 03:11:01,VALID,915.89,VALID,0,VALID,98.4324,VALID,-0.0509425,VALID,19.3507,VALID,8,VALID,0.758371,
2003-11-01, 03:12:00,VALID,915.87,VALID,0,VALID,98.5303,VALID,-0.0849042,VALID,19.3571,VALID,8,VALID,0.625727,
2003-11-01, 03:13:01,VALID,915.867,VALID,0,VALID,98.5392,VALID,-0.0339617,VALID,19.3634,VALID,9,VALID,0.679324,
2003-11-01, 03:14:01,VALID,915.856,VALID,0,VALID,98.5748,VALID,-0.0509425,VALID,19.347,VALID,12,VALID,0.567578,
2003-11-01, 03:15:01,VALID,915.859,VALID,0,VALID,98.6155,VALID,-0.0679233,VALID,19.3678,VALID,12,VALID,0.471354,
2003-11-01, 03:16:01,VALID,915.858,VALID,0,VALID,98.5939,VALID,-0.101885,VALID,19.3445,VALID,4,VALID,0.320112,
2003-11-01, 03:17:01,VALID,915.86,VALID,0,VALID,98.5926,VALID,-0.0679233,VALID,19.3641,VALID,357,VALID,0.520579,
2003-11-01, 03:18:01,VALID,915.868,VALID,0,VALID,98.5786,VALID,-0.0509425,VALID,19.3701,VALID,360,VALID,0.697976,
2003-11-01, 03:19:00,VALID,915.865,VALID,0,VALID,98.5341,VALID,-0.0849042,VALID,19.3964,VALID,360,VALID,0.732813,
2003-11-01, 03:20:01,VALID,915.875,VALID,0,VALID,98.5494,VALID,-0.0509425,VALID,19.4118,VALID,1,VALID,0.61441,
2003-11-01, 03:21:01,VALID,915.877,VALID,0,VALID,98.468,VALID,-0.0509425,VALID,19.4414,VALID,360,VALID,0.550868,
2003-11-01, 03:22:01,VALID,915.879,VALID,0,VALID,98.3179,VALID,-0.0679233,VALID,19.4573,VALID,360,VALID,0.178544,
2003-11-01, 03:23:01,VALID,915.89,VALID,0,VALID,98.2289,VALID,-0.0509425,VALID,19.4764,VALID,360,VALID,0.157924,
2003-11-01, 03:24:01,VALID,915.876,VALID,0,VALID,98.1958,VALID,-0.101885,VALID,19.499,VALID,360,VALID,0.342262,
2003-11-01, 03:25:01,VALID,915.893,VALID,0,VALID,98.1475,VALID,-0.0849042,VALID,19.5057,VALID,351,VALID,0.481836,
2003-11-01, 03:26:01,VALID,915.89,VALID,0,VALID,98.0547,VALID,-0.0679233,VALID,19.5057,VALID,346,VALID,0.198509,
2003-11-01, 03:27:01,VALID,915.909,VALID,0,VALID,98.0814,VALID,-0.0509425,VALID,19.5089,VALID,346,VALID,0.138445,
2003-11-01, 03:28:00,VALID,915.917,VALID,0,VALID,98.1412,VALID,-0.0509425,VALID,19.5219,VALID,346,VALID,0.0464844,
2003-11-01, 03:29:01,VALID,915.916,VALID,0,VALID,98.1704,VALID,-0.0679233,VALID,19.5161,VALID,346,VALID,0.133176,
2003-11-01, 03:30:01,VALID,915.932,VALID,0,VALID,98.2315,VALID,-0.0849042,VALID,19.5122,VALID,346,VALID,0.0109012,
2003-11-01, 03:31:01,VALID,915.937,VALID,0,VALID,98.2187,VALID,-0.0679233,VALID,19.4925,VALID,346,VALID,0.181386,
2003-11-01, 03:32:01,VALID,915.935,VALID,0,VALID,98.1628,VALID,-0.0679233,VALID,19.4933,VALID,346,VALID,0.138822,
2003-11-01, 03:33:01,VALID,915.943,VALID,0,VALID,98.1412,VALID,-0.0339617,VALID,19.4799,VALID,346,VALID,0,
2003-11-01, 03:34:01,VALID,915.947,VALID,0,VALID,98.1437,VALID,-0.0679233,VALID,19.4665,VALID,346,VALID,0,
2003-11-01, 03:35:01,VALID,915.932,VALID,0,VALID,98.2289,VALID,-0.101885,VALID,19.4898,VALID,346,VALID,0,
2003-11-01, 03:36:01,VALID,915.929,VALID,0,VALID,98.3319,VALID,-0.0849042,VALID,19.4863,VALID,346,VALID,0,
2003-11-01, 03:37:01,VALID,915.918,VALID,0,VALID,98.3751,VALID,-0.0339617,VALID,19.496,VALID,346,VALID,0.147507,
2003-11-01, 03:38:01,VALID,915.918,VALID,0,VALID,98.365,VALID,-0.0679233,VALID,19.4866,VALID,346,VALID,0.180043,